Time,TemperatureF,DewpointF,PressureIn,WindDirection,WindDirectionDegrees,WindSpeedMPH,WindSpeedGustMPH,Humidity,HourlyPrecipIn,Conditions,Clouds,dailyrainin,SoftwareType,DateUTC
2013-07-20 00:01:00,55.0,47.0,30.35,North,5,3.0,5.0,74,0.00,,,0.09,,2013-07-20 06:01:00,
2013-07-20 00:11:00,55.0,47.0,30.35,North,7,1.0,2.0,74,0.00,,,0.09,,2013-07-20 06:11:00,
2013-07-20 00:21:00,55.0,47.0,30.35,NNW,341,2.0,3.0,74,0.00,,,0.09,,2013-07-20 06:21:00,
2013-07-20 00:32:00,55.0,47.0,30.35,NNW,340,1.0,2.0,75,0.00,,,0.09,,2013-07-20 06:32:00,
2013-07-20 00:43:00,55.0,47.0,30.35,North,356,0.0,1.0,75,0.00,,,0.09,,2013-07-20 06:43:00,
2013-07-20 00:52:00,55.0,47.0,30.35,North,356,0.0,0.0,75,0.00,,,0.09,,2013-07-20 06:52:00,
2013-07-20 01:01:00,54.0,47.0,30.35,North,356,0.0,0.0,76,0.00,,,0.09,,2013-07-20 07:01:00,
2013-07-20 01:12:00,54.0,47.0,30.34,North,356,0.0,0.0,76,0.00,,,0.09,,2013-07-20 07:12:00,
2013-07-20 01:22:00,54.0,46.0,30.34,North,356,0.0,0.0,74,0.00,,,0.09,,2013-07-20 07:22:00,
2013-07-20 01:33:00,54.0,46.0,30.34,North,356,0.0,2.0,74,0.00,,,0.09,,2013-07-20 07:33:00,
2013-07-20 01:44:00,54.0,46.0,30.34,North,0,3.0,3.0,75,0.00,,,0.09,,2013-07-20 07:44:00,
2013-07-20 01:53:00,54.0,46.0,30.34,NNE,13,0.0,0.0,75,0.00,,,0.09,,2013-07-20 07:53:00,
2013-07-20 02:01:00,54.0,46.0,30.34,North,0,0.0,0.0,75,0.00,,,0.09,,2013-07-20 08:01:00,
2013-07-20 02:11:00,54.0,47.0,30.33,North,0,1.0,2.0,76,0.00,,,0.09,,2013-07-20 08:11:00,
2013-07-20 02:22:00,54.0,47.0,30.33,NNW,347,1.0,6.0,76,0.00,,,0.09,,2013-07-20 08:22:00,
2013-07-20 02:32:00,54.0,47.0,30.33,North,351,1.0,5.0,76,0.00,,,0.09,,2013-07-20 08:32:00,
2013-07-20 02:44:00,54.0,47.0,30.33,North,357,1.0,3.0,77,0.00,,,0.09,,2013-07-20 08:44:00,
2013-07-20 02:52:00,54.0,47.0,30.32,North,355,1.0,3.0,76,0.00,,,0.09,,2013-07-20 08:52:00,
2013-07-20 03:02:00,54.0,47.0,30.32,North,349,2.0,5.0,76,0.00,,,0.09,,2013-07-20 09:02:00,
2013-07-20 03:11:00,54.0,46.0,30.32,North,349,2.0,3.0,75,0.00,,,0.09,,2013-07-20 09:11:00,
2013-07-20 03:22:00,54.0,47.0,30.32,NNE,16,0.0,0.0,76,0.00,,,0.09,,2013-07-20 09:22:00,
2013-07-20 03:33:00,54.0,47.0,30.32,NNE,16,0.0,0.0,76,0.00,,,0.09,,2013-07-20 09:33:00,
2013-07-20 03:43:00,53.0,46.0,30.32,NNE,16,0.0,1.0,78,0.00,,,0.09,,2013-07-20 09:43:00,
2013-07-20 03:53:00,54.0,46.0,30.32,North,4,2.0,5.0,74,0.00,,,0.09,,2013-07-20 09:53:00,
2013-07-20 04:01:00,54.0,46.0,30.32,North,349,0.0,3.0,74,0.00,,,0.09,,2013-07-20 10:01:00,
2013-07-20 04:11:00,54.0,47.0,30.32,North,358,3.0,7.0,76,0.00,,,0.09,,2013-07-20 10:11:00,
2013-07-20 04:21:00,54.0,46.0,30.31,NNW,344,5.0,5.0,75,0.00,,,0.09,,2013-07-20 10:21:00,
2013-07-20 04:32:00,53.0,46.0,30.32,NNW,345,2.0,5.0,77,0.00,,,0.09,,2013-07-20 10:32:00,
2013-07-20 04:42:00,53.0,46.0,30.31,North,354,6.0,7.0,77,0.00,,,0.09,,2013-07-20 10:42:00,
2013-07-20 04:52:00,53.0,46.0,30.31,NNW,346,1.0,2.0,78,0.00,,,0.09,,2013-07-20 10:52:00,
2013-07-20 05:01:00,53.0,46.0,30.32,North,349,1.0,2.0,77,0.00,,,0.09,,2013-07-20 11:01:00,
2013-07-20 05:11:00,52.0,45.0,30.31,North,355,0.0,1.0,77,0.00,,,0.09,,2013-07-20 11:11:00,
2013-07-20 05:22:00,52.0,45.0,30.32,North,351,0.0,0.0,77,0.00,,,0.09,,2013-07-20 11:22:00,
2013-07-20 05:32:00,52.0,44.0,30.31,NNW,347,2.0,3.0,75,0.00,,,0.09,,2013-07-20 11:32:00,
2013-07-20 05:43:00,52.0,45.0,30.32,NNW,341,3.0,6.0,77,0.00,,,0.09,,2013-07-20 11:43:00,
2013-07-20 05:52:00,51.0,44.0,30.32,NNW,338,3.0,6.0,78,0.00,,,0.09,,2013-07-20 11:52:00,
2013-07-20 06:01:00,51.0,45.0,30.32,NNW,344,2.0,5.0,79,0.00,,,0.09,,2013-07-20 12:01:00,
2013-07-20 06:11:00,51.0,45.0,30.32,North,0,2.0,3.0,79,0.00,,,0.09,,2013-07-20 12:11:00,
2013-07-20 06:22:00,51.0,44.0,30.32,North,355,2.0,7.0,78,0.00,,,0.09,,2013-07-20 12:22:00,
2013-07-20 06:32:00,51.0,44.0,30.32,North,358,3.0,6.0,78,0.00,,,0.09,,2013-07-20 12:32:00,
2013-07-20 06:52:00,51.0,44.0,30.32,North,351,3.0,6.0,78,0.00,,,0.09,,2013-07-20 12:52:00,
2013-07-20 07:01:00,52.0,44.0,30.32,North,0,3.0,6.0,73,0.00,,,0.09,,2013-07-20 13:01:00,
2013-07-20 07:11:00,54.0,44.0,30.32,NNW,343,3.0,5.0,70,0.00,,,0.09,,2013-07-20 13:11:00,
2013-07-20 07:22:00,55.0,44.0,30.31,NNW,347,5.0,7.0,66,0.00,,,0.09,,2013-07-20 13:22:00,
2013-07-20 07:32:00,57.0,45.0,30.32,NNW,327,2.0,3.0,65,0.00,,,0.09,,2013-07-20 13:32:00,
2013-07-20 07:43:00,57.0,45.0,30.32,NW,318,3.0,5.0,63,0.00,,,0.09,,2013-07-20 13:43:00,
2013-07-20 08:32:00,62.0,46.0,30.31,NNE,19,3.0,6.0,55,0.00,,,0.09,,2013-07-20 14:32:00,
2013-07-20 08:43:00,63.0,46.0,30.32,North,359,1.0,3.0,53,0.00,,,0.09,,2013-07-20 14:43:00,
2013-07-20 13:33:00,83.0,49.0,30.27,SSE,150,2.0,3.0,31,0.00,,,0.04,,2013-07-20 19:33:00,
2013-07-20 15:33:00,83.0,50.0,30.25,SE,142,6.0,10.0,32,0.00,,,0.01,,2013-07-20 21:33:00,
2013-07-20 15:44:00,81.0,49.0,30.25,SE,135,5.0,9.0,33,0.00,,,0.01,,2013-07-20 21:44:00,
2013-07-20 16:33:00,84.0,50.0,30.24,SSW,202,6.0,9.0,31,0.00,,,0.01,,2013-07-20 22:33:00,
2013-07-20 17:25:00,81.0,49.0,30.22,West,279,5.0,6.0,33,0.00,,,0.01,,2013-07-20 23:25:00,
2013-07-20 17:36:00,77.0,48.0,30.22,West,280,3.0,3.0,36,0.00,,,0.01,,2013-07-20 23:36:00,
2013-07-20 17:43:00,75.0,48.0,30.22,West,280,3.0,3.0,38,0.00,,,0.01,,2013-07-20 23:43:00,
2013-07-20 17:54:00,75.0,50.0,30.23,West,280,0.0,0.0,41,0.00,,,0.01,,2013-07-20 23:54:00,
2013-07-20 18:06:00,76.0,52.0,30.23,West,280,1.0,3.0,43,0.00,,,0.01,,2013-07-21 00:06:00,
2013-07-20 18:14:00,76.0,52.0,30.23,WSW,254,0.0,1.0,43,0.00,,,0.01,,2013-07-21 00:14:00,
2013-07-20 18:22:00,75.0,50.0,30.22,SSW,212,2.0,3.0,41,0.00,,,0.01,,2013-07-21 00:22:00,
2013-07-20 18:43:00,73.0,51.0,30.23,SSW,212,0.0,2.0,46,0.00,,,0.01,,2013-07-21 00:43:00,
2013-07-20 18:55:00,72.0,50.0,30.23,SSW,212,1.0,2.0,46,0.00,,,0.01,,2013-07-21 00:55:00,
2013-07-20 19:05:00,72.0,51.0,30.23,SSW,212,0.0,1.0,47,0.00,,,0.01,,2013-07-21 01:05:00,
2013-07-20 19:11:00,72.0,48.0,30.24,SSW,195,5.0,8.0,42,0.00,,,0.01,,2013-07-21 01:11:00,
2013-07-20 19:35:00,72.0,48.0,30.24,South,175,6.0,13.0,42,0.00,,,0.01,,2013-07-21 01:35:00,
2013-07-20 19:44:00,-999.0,-99.9,30.24,SSW,195,3.0,6.0,-999,-99.99,,,-99.99,,2013-07-21 01:44:00,
2013-07-20 20:03:00,69.0,46.0,30.24,SSW,200,1.0,3.0,43,0.00,,,0.01,,2013-07-21 02:03:00,
2013-07-20 20:15:00,68.0,46.0,30.24,SSW,211,1.0,3.0,46,0.00,,,0.01,,2013-07-21 02:15:00,
2013-07-20 20:24:00,68.0,46.0,30.24,SSW,211,1.0,3.0,46,0.00,,,0.01,,2013-07-21 02:24:00,
2013-07-20 20:35:00,65.0,45.0,30.24,SSW,211,0.0,0.0,48,0.00,,,0.01,,2013-07-21 02:35:00,
2013-07-20 20:43:00,64.0,45.0,30.25,SSW,211,0.0,2.0,50,0.00,,,0.01,,2013-07-21 02:43:00,
2013-07-20 21:04:00,62.0,45.0,30.25,East,85,0.0,0.0,53,0.00,,,0.01,,2013-07-21 03:04:00,
2013-07-20 21:14:00,61.0,45.0,30.26,North,0,0.0,0.0,56,0.00,,,0.01,,2013-07-21 03:14:00,
2013-07-20 21:24:00,60.0,46.0,30.27,North,0,0.0,0.0,59,0.00,,,0.01,,2013-07-21 03:24:00,
2013-07-20 21:44:00,59.0,44.0,30.27,NW,306,0.0,0.0,58,0.00,,,0.01,,2013-07-21 03:44:00,
2013-07-20 21:54:00,59.0,44.0,30.27,NW,306,0.0,0.0,57,0.00,,,0.01,,2013-07-21 03:54:00,
2013-07-20 22:01:00,58.0,44.0,30.28,NW,306,0.0,0.0,60,0.00,,,0.01,,2013-07-21 04:01:00,
2013-07-20 22:11:00,58.0,44.0,30.28,NW,306,0.0,0.0,59,0.00,,,0.01,,2013-07-21 04:11:00,
2013-07-20 22:22:00,58.0,44.0,30.28,NW,310,0.0,0.0,60,0.00,,,0.00,,2013-07-21 04:22:00,
2013-07-20 22:32:00,58.0,45.0,30.28,NW,309,0.0,0.0,61,0.00,,,0.00,,2013-07-21 04:32:00,
2013-07-20 22:43:00,57.0,45.0,30.29,North,0,0.0,0.0,63,0.00,,,0.00,,2013-07-21 04:43:00,
2013-07-20 22:53:00,57.0,45.0,30.28,North,0,0.0,0.0,65,0.00,,,0.00,,2013-07-21 04:53:00,
2013-07-20 23:02:00,56.0,46.0,30.28,NNW,348,2.0,5.0,68,0.00,,,0.00,,2013-07-21 05:02:00,
2013-07-20 23:11:00,57.0,45.0,30.29,North,0,2.0,3.0,65,0.00,,,0.00,,2013-07-21 05:11:00,
2013-07-20 23:22:00,57.0,45.0,30.29,North,4,0.0,0.0,65,0.00,,,0.00,,2013-07-21 05:22:00,
2013-07-20 23:32:00,56.0,44.0,30.29,North,5,0.0,3.0,65,0.00,,,0.00,,2013-07-21 05:32:00,
2013-07-20 23:42:00,57.0,45.0,30.29,North,2,5.0,6.0,65,0.00,,,0.00,,2013-07-21 05:42:00,
2013-07-20 23:52:00,56.0,44.0,30.29,North,357,5.0,6.0,65,0.00,,,0.00,,2013-07-21 05:52:00,